Monticello, KY

1:58 AM EST on November 20, 2017 (GMT -0500)
Wayne County

Weather History for KEKQ - September, 2013

Change the Weather History Date:

Tuesday, September 17, 2013

  Actual Average Record
Temperature  
Mean Temperature 67 °F -  
Max Temperature 79 °F 79 °F 91 °F (1991)
Min Temperature 55 °F 57 °F 40 °F (1961)
Cooling Degree Days 2    
Growing Degree Days 17 (Base 50)    
Moisture  
Dew Point 60 °F    
Average Humidity 86    
Maximum Humidity 100    
Minimum Humidity 54    
Precipitation  
Precipitation 0.00 in - - ()
Sea Level Pressure  
Sea Level Pressure 30.23 in    
Wind  
Wind Speed 3 mph (ENE)    
Max Wind Speed 8 mph    
Max Gust Speed -    
Visibility 7 miles    
Events      
Averages and records for this station are not official NWS values.
T = Trace of Precipitation, MM = Missing Value Source: NWS Daily Summary

Daily Weather History Graph

Daily Weather History Graph

Search for Another Location

Airport or City:

Trip Planner

Search our weather history database for the weather conditions in past years. The results will help you decide how hot, cold, wet, or windy it might be!

Date:

Astronomy

Sep. 17, 2013 Rise Set
Actual Time 6:23 AM CDT 6:43 PM CDT
Civil Twilight 5:57 AM CDT 7:09 PM CDT
Nautical Twilight 5:27 AM CDT 7:39 PM CDT
Astronomical Twilight 4:56 AM CDT 8:10 PM CDT
Moon 5:28 PM CDT (9/17) 4:19 AM CDT (9/17)
Length of Visible Light 13h 11m
Length of Day
12h 20m
Waxing Gibbous, 96% of the Moon is Illuminated
Sep 17
Waxing Gibbous
Sep 19
Full
Sep 26
Last Quarter
Oct 4
New
Oct 11
First Quarter

Hourly Weather History & Observations

Time (CDT) Temp. Dew Point Humidity Pressure Visibility Wind Dir Wind Speed Gust Speed Precip Events Conditions
12:56 AM 59.9 °F 59.9 °F 100% 30.25 in 7.0 mi NE 4.6 mph - N/A   Clear
1:56 AM 61.0 °F 59.9 °F 96% 30.25 in 8.0 mi NE 3.5 mph - N/A   Partly Cloudy
2:56 AM 61.0 °F 59.9 °F 96% 30.24 in 7.0 mi NE 5.8 mph - N/A   Clear
3:56 AM 59.9 °F 59.0 °F 97% 30.24 in 7.0 mi ENE 4.6 mph - N/A   Clear
4:56 AM 57.9 °F 56.8 °F 96% 30.24 in 5.0 mi NE 4.6 mph - N/A   Clear
5:35 AM 57.2 °F 57.2 °F 100% 30.24 in 2.5 mi Calm Calm - N/A   Partly Cloudy
5:42 AM 57.2 °F 55.4 °F 94% 30.25 in 3.0 mi Calm Calm - N/A   Clear
5:56 AM 55.9 °F 54.9 °F 96% 30.25 in 2.5 mi Calm Calm - N/A   Partly Cloudy
6:15 AM 55.4 °F 55.4 °F 100% 30.25 in 3.0 mi Calm Calm - N/A   Partly Cloudy
6:29 AM 55.4 °F 55.4 °F 100% 30.25 in 1.8 mi Calm Calm - N/A   Mostly Cloudy
6:48 AM 57.2 °F 57.2 °F 100% 30.26 in 2.0 mi Calm Calm - N/A   Mostly Cloudy
6:56 AM 56.8 °F 56.8 °F 100% 30.27 in 2.0 mi Calm Calm - N/A   Mostly Cloudy
7:20 AM 59.0 °F 57.2 °F 94% 30.26 in 4.0 mi Calm Calm - N/A   Mostly Cloudy
7:56 AM 61.0 °F 59.9 °F 96% 30.27 in 4.0 mi NE 4.6 mph - N/A   Overcast
8:56 AM 63.0 °F 59.9 °F 90% 30.27 in 9.0 mi NNE 8.1 mph - N/A   Mostly Cloudy
9:13 AM 64.4 °F 60.8 °F 88% 30.27 in 10.0 mi ENE 4.6 mph - N/A   Scattered Clouds
9:56 AM 68.0 °F 61.0 °F 78% 30.28 in 10.0 mi Calm Calm - N/A   Partly Cloudy
10:56 AM 72.0 °F 61.0 °F 68% 30.27 in 10.0 mi Calm Calm - N/A   Clear
11:56 AM 75.9 °F 59.9 °F 57% 30.25 in 10.0 mi East 5.8 mph - N/A   Clear
12:56 PM 77.9 °F 59.9 °F 54% 30.22 in 10.0 mi SSE 6.9 mph - N/A   Partly Cloudy
1:56 PM 77.9 °F 61.0 °F 56% 30.20 in 10.0 mi Calm Calm - N/A   Clear
2:56 PM 79.0 °F 61.9 °F 56% 30.18 in 10.0 mi Variable 4.6 mph - N/A   Scattered Clouds
3:56 PM 77.9 °F 63.0 °F 60% 30.17 in 10.0 mi ENE 5.8 mph - N/A   Clear
4:56 PM 77.9 °F 63.0 °F 60% 30.17 in 10.0 mi NE 4.6 mph - N/A   Clear
5:56 PM 77.0 °F 63.9 °F 64% 30.17 in 10.0 mi East 6.9 mph - N/A   Clear
6:56 PM 68.9 °F 64.9 °F 87% 30.17 in 10.0 mi Calm Calm - N/A   Scattered Clouds
7:56 PM 65.8 °F 63.9 °F 93% 30.17 in 10.0 mi Calm Calm - N/A   Scattered Clouds
8:56 PM 63.9 °F 63.0 °F 97% 30.18 in 8.0 mi Calm Calm - N/A   Partly Cloudy
9:56 PM 61.9 °F 61.9 °F 100% 30.18 in 6.0 mi Calm Calm - N/A   Partly Cloudy
10:56 PM 61.9 °F 61.0 °F 97% 30.18 in 5.0 mi Calm Calm - N/A   Partly Cloudy
11:56 PM 63.0 °F 63.0 °F 100% 30.17 in 7.0 mi Calm Calm - N/A   Partly Cloudy